Location: Nantong Television Tower
(32.0188°N, 120.8512°E)
Time: 12:32:38
(UTC+08:00)

Vanguard 3 - Visible Passes

Search period start: 25 February 2017 00:00
Search period end: 07 March 2017 00:00
Orbit: 508 x 3265 km, 33.3° (Epoch: 23 February)

Date Brightness Start Highest point End Pass type
(mag) Time Alt. Az. Time Alt. Az. Time Alt. Az.
25 Feb 9.4 02:59:49 32° ESE 02:59:49 32° ESE 03:06:51 10° E visible
25 Feb 8.7 05:04:26 25° WSW 05:10:03 87° SSE 05:24:55 10° E visible
26 Feb 8.1 03:55:03 65° S 03:55:42 67° SSE 04:07:34 10° ENE visible
26 Feb 9.2 06:00:14 10° W 06:09:27 84° N 06:26:04 10° E visible
27 Feb 9.6 02:45:38 28° E 02:45:38 28° E 02:50:43 10° E visible
27 Feb 8.5 04:50:14 34° W 04:54:29 89° N 05:08:19 10° E visible
28 Feb 8.1 03:40:48 71° SE 03:40:48 71° SE 03:51:09 10° ENE visible
28 Feb 9.0 05:45:23 11° W 05:53:46 84° N 06:09:25 10° E visible
01 Mar 9.8 02:31:21 22° E 02:31:21 22° E 02:34:39 10° E visible
01 Mar 8.2 04:35:56 43° W 04:39:00 86° N 04:51:47 10° E visible
02 Mar 8.3 03:26:29 59° E 03:26:29 59° E 03:34:51 10° ENE visible
02 Mar 8.8 05:31:04 15° W 05:38:09 84° N 05:52:47 10° E visible
03 Mar 10.1 02:17:00 16° E 02:17:00 16° E 02:18:40 10° E visible
03 Mar 7.9 04:21:36 54° W 04:23:35 83° N 04:35:21 10° E visible
04 Mar 8.7 03:12:07 45° E 03:12:07 45° E 03:18:39 10° E visible
04 Mar 8.5 05:16:43 19° W 05:22:37 85° N 05:36:13 10° E visible
05 Mar 10.4 02:02:39 11° E 02:02:39 11° E 02:02:47 10° E visible
05 Mar 7.7 04:07:14 67° WNW 04:08:16 81° N 04:19:00 10° E visible
06 Mar 9.1 02:57:46 33° E 02:57:46 33° E 03:02:34 10° E visible
06 Mar 8.3 05:02:22 24° W 05:07:09 88° N 05:19:41 10° E visible
